{"data":{"norad_id":61962,"epoch":"2026-09-21T01:13:18.423552Z","epoch_age_seconds":138063,"freshness":"FRESH","line1":"1 61962U 24210D   26264.05090768  .00011379  00000+0  42218-3 0  9998","line2":"2 61962  43.0032 142.1890 0000633 350.7330   9.3510 15.27595649104956","mean_motion":15.27595649,"eccentricity":6.33e-5,"inclination_deg":43.0032,"raan_deg":142.189,"arg_perigee_deg":350.733,"mean_anomaly_deg":9.351,"bstar":0.00042218,"rev_number":10495,"period_min":94.265783025937,"perigee_km":482.56792759023,"apogee_km":483.43654781773,"semimajor_km":6861.139237704,"source":"CELESTRAK","updated_at":"2026-09-22T09:00:49.458628Z"}}